Weather in Achair

Russia / Omsk Oblast     54°39′29″N   73°52′39″E
temp.,
°C
wind,
m/s
gust,
m/s
humid.,
%
clouds,
%
prec.,
mm/h
press.,
hPa
HPBL,
m
20 january, wed
wed2000:00−26ne22958 0.0 102719
03:00−26e349452 0.0 102727
06:00−26e349273 0.0 102773
09:00−24ese5991100 0.0 1026206
12:00−22e61091100 0.0 1025257
15:00−19ese61190100 0.0 1022322
18:00−18ese71297100 0.9 1020390
21:00−17se61195100 1.4 1017478
21 january, thu
thu2100:00−17sse5996100 1.6 1017249
03:00−17sw4109797 0.1 1016248
06:00−19wsw5119696 0.1 1017237
09:00−22sw499691 0.0 1017163
12:00−20sw5109487 0.0 1017279
15:00−18sw5993100 0.0 1016327
18:00−22sw479793 0.0 1016105
21:00−24wsw44969 0.0 101574
22 january, fri
fri2200:00−26wsw34968 0.0 101554
03:00−27w349733 0.0 101536
06:00−28w349817 0.0 101436
09:00−29w33990 0.0 101521
12:00−26w349736 0.0 1016142
15:00−25w369673 0.0 1016202
18:00−28wsw349838 0.0 101751
21:00−27wsw359896 0.0 1019117
23 january, sat
sat2300:00−25wsw369898 0.1 1020228
03:00−24wsw3698100 0.1 1022241
06:00−25wsw349899 0.2 102299
09:00−26w239889 0.0 102520
12:00−26wnw239890 0.0 102779
15:00−25wnw229622 0.0 102921
18:00−29nw339711 0.0 103122
21:00−32nw33960 0.0 103425
24 january, sun
sun2400:00−34wnw339717 0.0 103521
03:00−34wnw239684 0.0 103629
06:00−33wnw229593 0.0 103723
09:00−32wsw1194100 0.0 103819
12:00−30sse1192100 0.0 103885
15:00−29ese129458 0.0 103769
18:00−32ese339529 0.0 103825
21:00−33ese349512 0.0 103844